Tracking 17842 objects as of 30-August-2016
HD Live streaming from Space Station
objects crossing your sky now

CZ-4B DEB

Track CZ-4B DEB now!
10-day predictions


NORAD ID: 36290
Int'l Code: 2008-053L
Perigee: 565.3 km
Apogee: 596.0 km
Inclination: 97.6 °
Period: 96.1 minutes
Semi major axis: 6951 km
RCS: 0.0218 m2 (small)
Launch date: October 25, 2008
Source: People's Republic of China (PRC)
Launch site: Taiyaun Space Center, China (TSC)

Note: This is SATELLITE DEBRIS
Your satellite tracking list
Your tracking list is empty





NASA's NSSDC Master Catalog

Two Line Element Set (TLE):
1 36290U 08053L   16241.76783312  .00000066  00000-0  10405-4 0  9993
2 36290  97.5689 232.9327 0022117  78.7375 281.6331 14.97861212406346
Source of the keplerian elements: AFSPC

N2YO: 429